Change the Weather History Date:

Tuesday, May 14, 2013

  Actual Average Record
Temperature  
Mean Temperature 14 °F -  
Max Temperature 21 °F 41 °F 55 °F (2008)
Min Temperature 6 °F 28 °F 6 °F (2013)
Degree Days  
Heating Degree Days 52    
Moisture  
Dew Point 8 °F    
Average Humidity 76    
Maximum Humidity 92    
Minimum Humidity 63    
Precipitation  
Precipitation 0.00 in - - ()
Sea Level Pressure  
Sea Level Pressure 29.77 in    
Wind  
Wind Speed 5 mph (SSE)    
Max Wind Speed 12 mph    
Max Gust Speed -    
Visibility 10 miles    
Events      
Averages and records for this station are not official NWS values.
T = Trace of Precipitation, MM = Missing Value Source: NWS Daily Summary

Daily Weather History Graph

Daily Weather History Graph

Search for Another Location

Airport or City:

Trip Planner

Search our weather history database for the weather conditions in past years. The results will help you decide how hot, cold, wet, or windy it might be!

Date:

Astronomy

May. 14, 2013 Rise Set
Actual Time 5:22 AM AKDT 12:02 AM AKDT
Civil Twilight 3:20 AM AKDT 2:18 AM AKDT
Nautical Twilight Sun does not rise Sun does not rise
Astronomical Twilight Sun does not rise Sun does not rise
Moon 9:24 AM AKDT (5/14) 3:08 AM AKDT (5/14)
Length of Visible Light 22h 58m
Length of Day
18h 39m
Waxing Crescent, 20% of the Moon is Illuminated
May 14
Waxing Crescent
May 17
First Quarter
May 24
Full
May 31
Last Quarter
Jun 8
New

Hourly Weather History & Observations

Time (AKDT) Temp. Windchill Dew Point Humidity Pressure Visibility Wind Dir Wind Speed Gust Speed Precip Events Conditions
12:16 AM 10.4 °F 2.2 °F 5.0 °F 79% 29.84 in 10.0 mi NNW 4.6 mph - N/A   Clear
12:36 AM 10.4 °F 0.8 °F 5.0 °F 79% 29.84 in 10.0 mi North 5.8 mph - N/A   Clear
12:56 AM 10.4 °F 2.2 °F 6.8 °F 85% 29.84 in 10.0 mi NNW 4.6 mph - N/A   Clear
1:16 AM 10.4 °F 4.0 °F 5.0 °F 79% 29.84 in 10.0 mi North 3.5 mph - N/A   Clear
1:36 AM 10.4 °F -1.5 °F 5.0 °F 79% 29.84 in 10.0 mi NNW 8.1 mph - N/A   Clear
1:56 AM 10.4 °F 0.8 °F 6.8 °F 85% 29.83 in 10.0 mi North 5.8 mph - N/A   Clear
2:16 AM 10.4 °F - 3.2 °F 73% 29.84 in 10.0 mi Calm Calm - N/A   Clear
2:36 AM 10.4 °F - 3.2 °F 73% 29.83 in 10.0 mi Calm Calm - N/A   Clear
2:56 AM 8.6 °F - 3.2 °F 79% 29.83 in 10.0 mi Calm Calm - N/A   Clear
3:16 AM 8.6 °F -1.3 °F 3.2 °F 79% 29.83 in 10.0 mi NNE 5.8 mph - N/A   Clear
3:36 AM 6.8 °F -0.1 °F 3.2 °F 85% 29.84 in 10.0 mi NNE 3.5 mph - N/A   Clear
3:56 AM 8.6 °F - 6.8 °F 92% 29.83 in 10.0 mi Calm Calm - N/A   Clear
4:16 AM 8.6 °F - 1.4 °F 73% 29.83 in 10.0 mi Calm Calm - N/A   Clear
4:36 AM 8.6 °F 0.1 °F 3.2 °F 79% 29.83 in 10.0 mi NNW 4.6 mph - N/A   Clear
4:56 AM 8.6 °F - 5.0 °F 85% 29.82 in 10.0 mi Calm Calm - N/A   Clear
5:16 AM 6.8 °F - 3.2 °F 85% 29.82 in 10.0 mi Calm Calm - N/A   Clear
5:36 AM 6.8 °F -3.5 °F 1.4 °F 79% 29.82 in 10.0 mi NNE 5.8 mph - N/A   Clear
5:56 AM 8.6 °F -2.6 °F 3.2 °F 79% 29.81 in 10.0 mi North 6.9 mph - N/A   Clear
6:16 AM 8.6 °F -1.3 °F 3.2 °F 79% 29.82 in 10.0 mi North 5.8 mph - N/A   Clear
6:36 AM 8.6 °F -1.3 °F 5.0 °F 85% 29.82 in 10.0 mi North 5.8 mph - N/A   Clear
6:56 AM 10.4 °F 2.2 °F 3.2 °F 73% 29.81 in 10.0 mi North 4.6 mph - N/A   Clear
7:16 AM 10.4 °F 2.2 °F 5.0 °F 79% 29.82 in 10.0 mi North 4.6 mph - N/A   Clear
7:36 AM 10.4 °F 4.0 °F 6.8 °F 85% 29.81 in 10.0 mi North 3.5 mph - N/A   Clear
7:56 AM 10.4 °F 2.2 °F 3.2 °F 73% 29.81 in 10.0 mi NE 4.6 mph - N/A   Clear
8:16 AM 12.2 °F 4.3 °F 5.0 °F 73% 29.81 in 10.0 mi East 4.6 mph - N/A   Clear
8:36 AM 12.2 °F 4.3 °F 3.2 °F 67% 29.81 in 10.0 mi East 4.6 mph - N/A   Clear
8:56 AM 12.2 °F 6.1 °F 3.2 °F 67% 29.81 in 10.0 mi East 3.5 mph - N/A   Clear
9:16 AM 12.2 °F 4.3 °F 5.0 °F 73% 29.81 in 10.0 mi East 4.6 mph - N/A   Clear
9:36 AM 12.2 °F 1.7 °F 3.2 °F 67% 29.81 in 10.0 mi ESE 6.9 mph - N/A   Clear
9:56 AM 12.2 °F 6.1 °F 5.0 °F 73% 29.81 in 10.0 mi East 3.5 mph - N/A   Clear
10:16 AM 12.2 °F 2.9 °F 5.0 °F 73% 29.81 in 10.0 mi ESE 5.8 mph - N/A   Clear
10:36 AM 12.2 °F 2.9 °F 5.0 °F 73% 29.80 in 10.0 mi SE 5.8 mph - N/A   Clear
10:56 AM 12.2 °F 2.9 °F 5.0 °F 73% 29.80 in 10.0 mi SE 5.8 mph - N/A   Clear
11:16 AM 12.2 °F 4.3 °F 6.8 °F 79% 29.80 in 10.0 mi SE 4.6 mph - N/A   Clear
11:36 AM 12.2 °F 4.3 °F 6.8 °F 79% 29.79 in 10.0 mi SE 4.6 mph - N/A   Clear
11:56 AM 14.0 °F 6.5 °F 6.8 °F 73% 29.79 in 10.0 mi SSE 4.6 mph - N/A   Clear
12:16 PM 14.0 °F 3.9 °F 6.8 °F 73% 29.79 in 10.0 mi SE 6.9 mph - N/A   Clear
12:36 PM 14.0 °F 5.1 °F 6.8 °F 73% 29.79 in 10.0 mi SSE 5.8 mph - N/A   Clear
12:56 PM 15.8 °F 6.1 °F 6.8 °F 68% 29.79 in 10.0 mi SE 6.9 mph - N/A   Clear
1:16 PM 15.8 °F 8.6 °F 6.8 °F 68% 29.79 in 10.0 mi SSE 4.6 mph - N/A   Clear
1:36 PM 15.8 °F 7.2 °F 6.8 °F 68% 29.78 in 10.0 mi SSE 5.8 mph - N/A   Clear
1:56 PM 15.8 °F 8.6 °F 6.8 °F 68% 29.78 in 10.0 mi SSE 4.6 mph - N/A   Clear
2:16 PM 17.6 °F 10.7 °F 8.6 °F 68% 29.78 in 10.0 mi South 4.6 mph - N/A   Clear
2:36 PM 17.6 °F 9.3 °F 6.8 °F 63% 29.77 in 10.0 mi SSE 5.8 mph - N/A   Clear
2:56 PM 17.6 °F 9.3 °F 6.8 °F 63% 29.76 in 10.0 mi SSE 5.8 mph - N/A   Clear
3:16 PM 17.6 °F 9.3 °F 8.6 °F 68% 29.76 in 10.0 mi South 5.8 mph - N/A   Clear
3:36 PM 17.6 °F 8.2 °F 8.6 °F 68% 29.76 in 10.0 mi South 6.9 mph - N/A   Clear
3:56 PM 17.6 °F 7.3 °F 8.6 °F 68% 29.75 in 10.0 mi South 8.1 mph - N/A   Clear
4:16 PM 19.4 °F 10.4 °F 10.4 °F 68% 29.75 in 10.0 mi South 6.9 mph - N/A   Clear
4:36 PM 19.4 °F 9.5 °F 8.6 °F 63% 29.74 in 10.0 mi South 8.1 mph - N/A   Clear
4:56 PM 19.4 °F 10.4 °F 10.4 °F 68% 29.74 in 10.0 mi South 6.9 mph - N/A   Clear
5:16 PM 19.4 °F 9.5 °F 10.4 °F 68% 29.73 in 10.0 mi South 8.1 mph - N/A   Clear
5:36 PM 19.4 °F 10.4 °F 10.4 °F 68% 29.73 in 10.0 mi South 6.9 mph - N/A   Clear
5:56 PM 19.4 °F 8.6 °F 12.2 °F 74% 29.73 in 10.0 mi South 9.2 mph - N/A   Clear
6:16 PM 19.4 °F 10.4 °F 12.2 °F 74% 29.72 in 10.0 mi South 6.9 mph - N/A   Mostly Cloudy
6:36 PM 19.4 °F 9.5 °F 12.2 °F 74% 29.72 in 10.0 mi South 8.1 mph - N/A   Overcast
6:56 PM 19.4 °F 8.6 °F 12.2 °F 74% 29.71 in 10.0 mi South 9.2 mph - N/A   Overcast
7:16 PM 21.2 °F 11.7 °F 15.8 °F 80% 29.71 in 10.0 mi South 8.1 mph - N/A   Overcast
7:36 PM 21.2 °F 11.7 °F 15.8 °F 80% 29.71 in 10.0 mi SSE 8.1 mph - N/A   Overcast
7:56 PM 21.2 °F 10.9 °F 15.8 °F 80% 29.70 in 10.0 mi SSW 9.2 mph - N/A   Overcast
8:16 PM 21.2 °F 9.5 °F 15.8 °F 80% 29.70 in 10.0 mi South 11.5 mph - N/A   Overcast
8:36 PM 21.2 °F 10.1 °F 15.8 °F 80% 29.70 in 10.0 mi South 10.4 mph - N/A   Mostly Cloudy
8:56 PM 21.2 °F 12.6 °F 14.0 °F 74% 29.69 in 10.0 mi South 6.9 mph - N/A   Mostly Cloudy
9:16 PM 21.2 °F 10.9 °F 15.8 °F 80% 29.69 in 10.0 mi South 9.2 mph - N/A   Partly Cloudy
9:36 PM 21.2 °F 13.6 °F 15.8 °F 80% 29.68 in 10.0 mi South 5.8 mph - N/A   Clear
9:56 PM 19.4 °F 9.5 °F 15.8 °F 86% 29.68 in 10.0 mi South 8.1 mph - N/A   Partly Cloudy
10:16 PM 19.4 °F 11.5 °F 15.8 °F 86% 29.68 in 10.0 mi South 5.8 mph - N/A   Scattered Clouds
10:36 PM 19.4 °F 10.4 °F 15.8 °F 86% 29.68 in 10.0 mi South 6.9 mph - N/A   Mostly Cloudy
10:56 PM 19.4 °F 11.5 °F 14.0 °F 80% 29.68 in 10.0 mi South 5.8 mph - N/A   Overcast
11:16 PM 19.4 °F 8.6 °F 15.8 °F 86% 29.68 in 10.0 mi South 9.2 mph - N/A   Overcast
11:36 PM 19.4 °F 9.5 °F 15.8 °F 86% 29.67 in 10.0 mi South 8.1 mph - N/A   Overcast
11:56 PM 21.2 °F 12.6 °F 15.8 °F 80% 29.67 in 10.0 mi South 6.9 mph - N/A   Overcast